FENGYUN 1C DEB, 31819

Orbit data source: Space-Track

FENGYUN 1C DEB, 31819 is space debris in SSO originally from a launch on Mon, 10 May 1999 UTC launched from the Taiyaun Space Center, China (TSC). Fengyun 1C debris stems from the Chinese weather satellite Fengyun-1C, which was intentionally destroyed by a Chinese anti-satellite missile in 2007. This event dramatically increased the amount of space debris, with thousands of trackable fragments posing hazards to satellites and human spaceflight. The Fengyun 1C debris cloud has become a focal point in discussions about space sustainability and the need for international regulations to prevent the creation of new debris.

Loading next visibility...
Identifier
31819, 1999-025CHH
Orbit
SSO
Country
Flag of CNCN / PRC
Related business
Manufacturer
Unknown
Mission
Spacecraft
Bus & Motor
Unknown
Mass
Unknown
Launch date (UTC)
1999-05-10 (27 years ago)
Launch vehicle
Unknown
Launch site
Taiyaun Space Center, China (TSC)
Object type
Payload
Rocket body
Debris
Shape & HBR
Unknown shape, 0.1 m
Radar Cross Section
Small (<0.1 m²)

Expand to show TLE details & history
Last TLE update: 4 days ago

TLE from 4 days ago
0 FENGYUN 1C DEB
1 31819U 99025CHH 26234.24063832  .00000550  00000-0  21855-3 0  9996
2 31819  98.4913 224.3709 0085744 295.4937  63.7396 14.30614905  2876
Epoch: 2026-08-22T05:46Z
TLE epoch observation values (Epoch: 2026-08-22T05:46:31.150Z)
Latitude
-0.00001°
Longitude
167.18723°
Altitude
765.84 km
Speed
7.485 km/s
True Right ascension
14h 57m 29s
True Declination
0° 00' 00"
Sunlit
Object was in daylight at epoch
Visualization orbit readout
Latitude
Unknown
Longitude
Unknown
Altitude
Unknown
Speed
Unknown
Apparent Right ascension
Unknown
Apparent Declination
Unknown
Sunlit
N/A
Visualization observer readout
Local Sidereal Time
23:19:07
Azimuth
Unknown
Elevation
Unknown
Doppler factor
Unknown
Orbital elements
Apogee altitude
848.245 km
Perigee altitude
725.375 km
Semi-major axis
7,164.947 km
Eccentricity
0.00857
Inclination
98.4913°
RAAN
224.3709°
Arg. of periapsis
295.4937°
True anomaly
64.62491°
Mean anomaly
63.7396°
Eccentric anomaly
64.18184°
Mean motion
3.57869 °/min
Orbital period
100.6 mins
BSTAR
0.00021855
Loading maneuver chart data...
Computing Atmospheric mass density...
Loading historical data...
Loading historical data...
Loading historical data...
Loading historical data...
Loading historical data...
Loading historical data...
Loading historical data...

Documentation

Showing up to 5 results
|